Tracking 19854 objects as of 22-Sep-2019
HD Live streaming from Space Station
objects crossing your sky now

FLOCK 3P 11

Track FLOCK 3P 11 now!
10-day predictions
FLOCK 3P 11 is classified as:


NORAD ID: 41975
Int'l Code: 2017-008AD
Perigee: 490.1 km
Apogee: 502.2 km
Inclination: 97.4 °
Period: 94.4 minutes
Semi major axis: 6867 km
RCS: Unknown
Launch date: February 15, 2017
Source: United States (US)
Launch site: SRIHARIKOTA (SRI)
aabbcc
Your satellite tracking list
Your tracking list is empty




NASA's NSSDC Master Catalog

Two Line Element Set (TLE):
1 41975U 17008AD  19264.75683574  .00001115  00000-0  46689-4 0  9994
2 41975  97.3987 330.7639 0008812 156.3224 203.8422 15.25597237144145
Source of the keplerian elements: AFSPC